SCP
1 1 1 1 1 1 1 1 1 1 1 0 0 0 0 0 0 0 0 0 1 1 1 0 0 0 0 0 0 0 0 0 0 0 0 0 0 0 0 0 0 0 0
1 1 1 1 1 1 1 1 1 1 1 0 0 0 0 0 0 0 0 1 1 1 1 0 0 0 0 0 0 0 0 0 0 0 0 0 0 0 0 0 0 0 0
2 2 2 1 1 1 1 1 1 1 1 1 0 0 0 0 0 0 1 1 1 1 1 0 0 0 0 0 0 0 0 0 0 0 0 0 0 0 0 0 0 0 0
2 2 2 2 2 1 1 1 1 1 1 1 1 1 0 0 0 0 1 1 1 1 1 0 0 0 0 0 0 0 0 0 0 0 0 0 0 0 0 0 0 0 0
2 2 2 2 2 2 1 1 1 1 1 1 1 1 1 1 1 1 1 1 0 1 1 1 0 0 0 0 0 0 0 0 0 0 0 0 0 0 0 0 0 0 0
2 2 2 2 2 2 1 1 1 1 1 1 1 1 1 1 1 1 1 1 0 1 1 1 1 0 0 0 0 0 0 0 0 0 0 0 0 0 0 1 0 0 0
3 3 2 2 2 2 1 1 1 1 1 1 1 1 1 1 1 1 1 1 1 1 1 1 1 0 0 0 0 0 0 0 0 0 0 0 0 0 1 1 1 0 0
3 3 3 2 2 2 1 1 1 1 1 1 1 1 1 1 1 1 1 1 1 1 1 1 1 1 1 0 0 0 0 0 0 0 0 0 0 1 1 1 1 0 0
3 3 3 2 2 1 1 1 1 1 1 1 1 1 1 1 1 1 1 1 1 1 1 1 1 0 1 0 0 0 0 0 0 0 0 0 0 1 1 1 1 0 0
3 3 3 2 1 1 1 0 0 0 0 0 0 0 0 0 0 1 1 1 1 1 1 1 1 0 0 0 0 0 0 0 0 0 0 0 1 1 1 1 1 0 0
3 3 3 2 1 1 1 0 0 0 0 0 0 0 0 0 0 0 0 1 1 1 1 1 1 0 0 0 0 0 0 0 0 0 0 0 1 1 1 1 1 1 1
2 2 2 2 1 1 1 0 0 0 0 0 0 0 0 0 0 0 0 0 1 1 1 1 0 0 0 0 0 0 0 0 0 0 0 1 1 1 1 1 1 1 1
2 2 2 2 1 1 1 1 1 1 0 0 0 0 0 0 0 0 0 0 0 0 0 0 0 0 0 0 0 0 0 0 0 0 0 1 1 1 1 1 1 1 1
2 2 2 1 1 1 1 1 1 1 0 0 0 0 0 0 0 0 0 0 0 0 0 0 0 0 0 0 0 0 0 0 0 0 0 1 1 1 1 1 1 1 1
2 2 2 1 1 1 1 1 1 1 1 0 0 0 0 0 0 0 0 0 0 1 1 1 0 0 0 0 0 0 0 0 0 0 0 0 0 0 1 1 1 1 1
2 2 1 1 1 1 1 1 1 1 1 0 0 0 0 0 0 1 0 0 0 0 1 1 1 0 0 0 0 0 0 0 0 0 0 0 0 0 1 1 1 1 1
1 1 1 1 1 1 1 1 1 1 1 0 0 0 0 0 0 0 0 0 0 0 1 1 1 0 0 0 0 0 0 0 0 0 0 0 0 0 0 1 1 1 1
1 1 1 1 1 1 2 2 1 1 1 0 0 0 0 0 0 0 0 0 0 0 0 1 1 0 0 0 0 0 0 0 0 0 0 0 0 0 0 0 1 1 1
1 1 1 1 1 1 1 1 1 1 0 0 0 0 0 0 0 0 0 0 0 0 0 1 1 0 0 0 0 0 0 0 0 0 0 0 0 0 0 0 0 0 1
1 1 1 1 1 1 1 1 1 0 0 0 0 0 0 0 0 0 0 0 0 0 0 0 0 0 0 0 0 0 0 0 0 0 0 0 0 0 0 0 0 0 0
1 1 1 1 1 1 0 0 0 0 0 0 0 0 0 0 0 0 0 0 0 0 0 0 0 0 0 0 0 0 0 0 0 0 0 0 0 0 0 0 0 0 0
1 1 1 1 1 0 0 0 0 0 0 0 0 0 0 0 0 0 0 0 0 0 0 0 0 0 0 0 0 0 0 0 0 0 0 0 0 0 0 0 0 0 0
2 1 1 1 0 0 0 0 0 0 0 0 0 0 0 0 0 0 0 0 0 0 0 0 0 0 0 0 0 0 0 0 0 0 0 0 0 0 0 0 0 0 0
2 2 1 1 1 0 0 0 0 0 0 0 0 0 0 0 0 0 0 0 0 0 0 0 0 0 0 0 0 0 0 0 0 0 0 0 0 0 0 0 0 0 0
2 2 2 1 1 1 0 0 0 0 0 0 0 0 0 0 0 0 0 0 0 0 0 0 0 0 0 0 0 0 0 0 0 0 0 0 0 0 0 0 0 0 0
2 2 2 1 1 1 1 0 0 0 0 0 0 0 0 0 0 0 0 0 0 0 0 0 0 0 0 0 0 0 0 0 0 0 0 0 0 0 0 0 0 0 0
Wind_Speed
4 6 5 6 7 7 7 7 7 7 7 7 7 7 7 7 7 7 7 7 7 8 8 8 9 9 10 9 10 10 10 10 10 10 10 10 10 10 11 10 9 6 10
6 7 6 6 7 7 7 7 7 7 7 7 7 7 7 7 7 7 7 7 7 8 8 8 9 9 9 9 9 9 9 9 8 9 9 9 9 11 11 11 11 8 11
7 7 6 6 7 7 7 7 7 7 7 7 7 7 7 7 7 7 7 7 7 8 8 8 9 9 8 8 8 7 7 7 7 6 7 4 6 9 10 10 10 11 11
6 7 6 6 7 7 7 7 7 6 6 6 6 7 6 7 7 6 6 6 7 7 7 8 8 8 8 8 7 7 6 6 6 5 4 4 4 8 9 10 10 10 10
6 6 6 6 6 6 6 6 6 5 6 6 6 6 6 6 6 6 6 6 6 7 7 8 8 8 8 8 7 7 7 7 6 5 4 5 4 7 8 8 8 9 9
6 6 7 6 6 6 6 5 5 5 5 5 6 6 6 6 6 6 6 6 6 6 7 7 7 8 7 7 7 7 6 7 5 3 4 4 4 7 8 8 8 8 8
5 6 6 5 5 5 5 4 4 4 5 5 5 6 6 6 5 5 5 5 6 6 6 7 7 7 7 7 7 6 6 6 4 4 4 4 4 7 8 8 8 8 8
5 5 6 5 4 4 4 4 4 4 4 4 5 5 5 5 5 4 4 5 5 5 5 6 7 7 7 7 7 6 6 6 4 4 4 4 6 7 7 8 8 8 8
5 5 4 4 4 3 3 3 3 4 4 4 4 4 4 4 3 3 5 5 5 5 5 5 6 6 6 6 6 6 6 5 4 3 4 3 6 6 6 7 7 7 7
4 4 4 3 3 3 2 3 3 3 3 3 4 4 4 3 3 3 4 4 4 5 5 5 5 5 5 5 5 4 4 4 2 3 2 3 5 5 5 5 6 6 6
3 3 3 3 2 2 2 2 2 3 3 4 4 4 3 1 1 2 3 3 4 4 5 4 4 4 4 4 4 3 3 1 2 2 3 5 5 4 5 5 5 5 6
3 3 2 2 2 2 2 2 2 1 2 2 2 2 1 1 1 2 3 4 3 3 3 3 3 3 2 1 2 1 1 1 2 2 3 5 5 5 5 5 4 5 5
4 3 3 2 2 1 1 1 1 1 1 1 1 1 1 1 1 1 1 2 2 2 1 2 2 1 1 1 1 1 1 1 1 2 3 5 5 4 4 4 4 4 4
3 3 3 2 2 1 1 1 1 1 1 1 1 1 1 1 1 0 1 1 1 1 1 1 1 1 1 1 1 1 1 1 1 2 3 6 6 5 4 3 4 4 4
4 3 3 3 2 2 1 1 1 1 1 1 1 0 1 1 0 0 0 1 1 1 1 1 1 1 1 1 1 1 1 1 2 2 2 5 5 5 4 4 3 3 3
4 4 3 3 3 2 1 1 1 1 1 1 1 1 1 1 1 1 1 1 1 1 1 1 1 1 1 1 1 1 1 1 2 2 2 3 5 5 5 5 4 4 4
5 4 4 3 3 2 2 1 1 1 1 1 1 1 1 1 1 1 1 1 1 1 1 1 1 1 1 1 1 1 1 1 2 2 2 2 2 3 4 5 5 5 5
5 5 4 3 3 3 2 1 1 1 1 1 1 1 1 1 2 1 1 1 1 1 1 1 1 1 1 0 0 0 0 1 1 1 1 1 1 2 2 4 4 5 5
5 5 5 4 3 3 2 1 1 1 1 1 1 1 1 1 1 1 1 1 1 1 1 1 1 1 1 0 0 0 1 1 1 1 1 1 1 1 1 2 3 4 5
5 5 5 4 3 2 2 1 1 1 1 1 1 1 1 0 1 1 1 2 2 1 1 1 1 1 1 0 0 0 0 1 1 1 1 1 1 1 1 1 1 2 4
5 5 5 5 4 3 2 2 2 1 1 1 1 1 1 1 0 1 1 2 2 2 1 1 2 1 0 0 1 1 1 1 1 1 1 1 1 0 0 0 0 0 1
6 6 5 5 5 4 3 2 1 1 1 1 1 1 1 1 1 1 1 1 2 2 1 1 1 1 1 1 1 0 1 1 1 1 1 1 1 0 0 0 1 1 0
6 6 5 5 5 4 3 2 2 1 1 1 1 1 1 1 1 1 2 1 2 2 2 2 2 2 2 1 1 2 1 2 1 0 1 1 1 1 1 1 1 1 0
6 5 5 5 5 5 4 3 4 3 2 2 2 1 1 1 2 2 2 2 2 2 2 3 2 2 2 2 1 0 1 1 1 1 1 0 1 1 1 1 1 1 1
5 5 5 5 5 5 4 4 4 3 2 1 1 2 2 2 2 2 2 2 2 2 2 2 2 2 2 2 2 1 1 1 1 2 2 2 1 1 1 2 2 1 1
5 5 5 5 5 5 5 5 4 4 3 2 2 2 2 1 2 2 2 2 2 2 2 3 3 3 3 2 2 1 2 1 2 2 3 3 2 2 2 2 2 1 1
Wind_Direction
101 110 96 88 83 76 72 71 74 71 71 71 67 69 69 66 69 69 68 70 69 74 77 75 73 70 68 70 71 67 64 61 60 60 61 60 61 62 62 56 52 48 56
115 118 102 90 88 81 76 71 70 72 73 71 67 65 70 69 71 71 70 68 67 72 78 78 75 72 69 69 68 67 64 60 57 58 62 60 62 62 61 58 56 55 57
115 119 114 91 88 83 78 74 68 69 72 71 69 65 68 70 70 70 69 67 69 72 75 77 74 76 73 71 70 67 64 58 55 57 61 59 62 62 62 60 58 55 53
113 118 117 95 91 89 84 77 70 67 71 71 72 70 70 71 71 70 67 65 71 72 74 77 77 77 74 73 70 67 60 54 47 54 57 55 58 64 66 63 58 54 51
112 115 113 100 96 94 91 84 77 69 72 72 76 74 72 69 69 68 66 63 69 72 77 80 79 78 73 73 71 65 54 44 40 48 49 55 51 61 63 63 58 55 53
115 113 116 106 102 97 92 88 84 78 78 73 74 72 70 70 67 65 62 65 70 72 76 78 80 78 75 72 70 63 53 43 41 38 50 50 49 59 62 61 60 57 54
117 113 121 110 105 101 97 91 87 82 78 75 73 69 67 65 64 61 62 66 73 73 74 77 79 80 77 74 68 59 48 36 42 47 53 52 54 60 63 65 62 59 56
119 115 125 117 108 103 99 89 78 74 72 74 69 64 63 62 64 63 64 73 76 77 79 79 83 84 80 75 67 54 41 35 35 51 52 48 50 56 63 63 58 54 51
119 119 126 136 127 108 93 82 73 65 68 75 71 65 57 56 59 59 74 76 79 81 81 81 87 85 81 77 68 55 41 36 25 48 55 52 50 50 58 61 56 51 50
116 122 129 137 141 137 122 94 74 62 70 73 70 65 60 61 66 67 71 76 86 85 83 86 91 87 80 74 68 57 39 25 24 53 52 53 57 57 56 59 52 48 53
121 125 130 136 140 138 144 119 104 86 79 76 73 71 65 62 96 92 80 74 82 84 82 81 87 87 76 68 59 47 31 20 35 52 48 53 60 63 59 54 50 54 53
151 144 135 140 137 140 139 125 134 122 111 101 97 95 82 47 51 66 72 80 82 87 85 81 79 74 70 75 51 39 20 11 37 58 53 56 61 60 60 53 55 51 46
162 153 146 141 134 123 121 131 118 117 120 112 115 112 83 69 66 73 90 99 112 114 108 93 85 62 57 61 62 49 20 31 52 60 54 55 58 54 54 57 57 48 43
163 156 148 137 128 122 129 134 124 114 111 97 102 78 96 103 93 109 129 135 137 129 131 116 100 84 63 55 62 63 41 35 61 76 66 60 57 51 38 41 48 45 44
174 166 155 141 137 137 140 138 130 132 124 126 139 148 142 139 150 131 155 146 149 131 136 123 105 78 68 51 42 45 55 53 58 66 71 63 57 47 29 25 32 31 32
180 174 159 150 149 147 146 158 166 153 147 136 137 150 177 165 162 166 193 158 150 140 135 128 123 92 68 69 47 34 58 64 62 61 81 70 55 44 23 15 16 17 15
182 175 167 164 160 165 162 174 165 153 150 148 145 140 169 175 165 183 188 160 152 138 124 115 105 92 83 78 66 58 55 61 70 60 57 69 67 45 23 12 11 10 8
174 172 175 174 174 173 164 177 167 157 157 144 132 127 162 182 175 175 173 160 148 132 128 125 116 111 118 122 125 184 129 108 98 85 67 62 71 64 20 13 8 360 358
173 172 173 176 173 170 159 163 163 146 146 139 130 134 152 117 143 170 162 151 141 134 141 150 128 143 155 163 231 200 151 128 124 100 97 68 62 78 73 11 10 2 356
173 171 170 169 165 155 147 148 151 120 125 128 141 149 138 126 141 170 159 149 138 132 144 146 145 141 162 174 318 308 166 154 135 135 129 96 60 51 65 45 24 357 355
170 169 171 172 170 161 163 171 178 188 184 150 157 145 142 129 142 145 171 150 144 151 165 166 155 139 158 94 27 317 295 195 172 167 149 130 109 79 100 88 86 64 350
175 177 179 181 175 179 182 176 168 150 174 179 166 157 160 157 171 162 164 162 155 150 149 168 163 161 202 165 165 192 314 327 276 183 144 143 157 171 190 204 139 109 45
181 182 184 183 179 182 173 149 128 124 137 168 204 193 191 180 176 164 177 176 171 165 178 186 180 182 205 219 155 159 176 232 308 282 180 152 161 186 234 252 186 178 210
185 180 181 181 179 179 171 169 171 181 192 204 199 193 190 192 192 182 188 188 184 177 188 196 188 183 180 201 220 205 175 169 163 291 298 215 189 212 226 250 230 209 215
178 177 178 176 179 178 178 182 189 198 198 186 176 179 195 206 201 193 187 193 194 191 194 193 189 182 182 189 187 188 230 261 178 203 261 280 278 254 235 232 226 213 208
171 172 174 177 183 182 182 190 193 196 193 185 193 197 202 201 202 200 193 197 200 197 195 199 194 188 190 188 191 179 172 179 204 204 235 257 262 257 247 232 223 220 213